Weather History for KSNS - September, 2011

Change the Weather History Date:

Wednesday, September 28, 2011

  Actual Average Record
Temperature  
Mean Temperature 78 °F 63 °F  
Max Temperature 95 °F 74 °F 99 °F (1970)
Min Temperature 60 °F 53 °F 44 °F (1959)
Degree Days  
Heating Degree Days 0 3  
Month to date heating degree days 50 58  
Since 1 July heating degree days 178 193  
Cooling Degree Days 13 1  
Month to date cooling degree days 36 28  
Year to date cooling degree days 63 97  
Growing Degree Days 28 (Base 50)    
Moisture  
Dew Point 55 °F    
Average Humidity 51    
Maximum Humidity 78    
Minimum Humidity 24    
Precipitation  
Precipitation 0.00 in 0.01 in 0.50 in (1976)
Month to date precipitation 0.03 0.15  
Year to date precipitation 9.89 8.90  
Since 1 July precipitation 0.05 0.18  
Sea Level Pressure  
Sea Level Pressure 29.96 in    
Wind  
Wind Speed 7 mph (NW)    
Max Wind Speed 16 mph    
Max Gust Speed -    
Visibility 10 miles    
Events      
T = Trace of Precipitation, MM = Missing Value Source: NWS Daily Summary

Daily Weather History Graph

Daily Weather History Graph

Search for Another Location

Airport or City:

Trip Planner

Search our weather history database for the weather conditions in past years. The results will help you decide how hot, cold, wet, or windy it might be!

Date:

Astronomy

Sep. 28, 2011 Rise Set
Actual Time 6:59 AM PDT 6:54 PM PDT
Civil Twilight 6:33 AM PDT 7:20 PM PDT
Nautical Twilight 6:03 AM PDT 7:50 PM PDT
Astronomical Twilight 5:32 AM PDT 8:20 PM PDT
Moon 8:30 AM PDT (9/28) 7:32 PM PDT (9/28)
Length of Visible Light 12h 47m
Length of Day
11h 55m
Waxing Crescent, 3% of the Moon is Illuminated
Sep 28
Waxing Crescent
Oct 3
First Quarter
Oct 11
Full
Oct 19
Last Quarter
Oct 26
New

Hourly Weather History & Observations

Time (PDT) Temp. Heat Index Dew Point Humidity Pressure Visibility Wind Dir Wind Speed Gust Speed Precip Events Conditions
12:53 AM 63.0 °F - 54.0 °F 72% 29.98 in 10.0 mi Calm Calm - N/A   Clear
1:53 AM 64.9 °F - 54.0 °F 68% 29.98 in 10.0 mi East 6.9 mph - N/A   Clear
2:53 AM 62.1 °F - 52.0 °F 70% 29.97 in 10.0 mi Calm Calm - N/A   Clear
3:53 AM 61.0 °F - 53.1 °F 75% 29.96 in 10.0 mi Calm Calm - N/A   Clear
4:53 AM 61.0 °F - 53.1 °F 75% 29.96 in 10.0 mi Calm Calm - N/A   Clear
5:53 AM 60.1 °F - 52.0 °F 75% 29.96 in 10.0 mi Calm Calm - N/A   Clear
6:53 AM 62.1 °F - 53.1 °F 72% 29.97 in 10.0 mi East 5.8 mph - N/A   Clear
7:53 AM 64.9 °F - 52.0 °F 63% 29.98 in 10.0 mi East 5.8 mph - N/A   Clear
8:53 AM 72.0 °F - 53.1 °F 51% 29.99 in 10.0 mi East 11.5 mph - N/A   Clear
9:53 AM 78.1 °F - 54.0 °F 43% 29.99 in 10.0 mi East 12.7 mph - N/A   Clear
10:53 AM 84.0 °F 83.0 °F 55.9 °F 38% 29.97 in 10.0 mi East 11.5 mph - N/A   Clear
11:53 AM 89.1 °F 87.7 °F 57.0 °F 34% 29.96 in 10.0 mi SE 5.8 mph - N/A   Clear
12:53 PM 95.0 °F 92.7 °F 54.0 °F 25% 29.94 in 10.0 mi Calm Calm - N/A   Clear
1:53 PM 91.9 °F 89.5 °F 54.0 °F 27% 29.93 in 10.0 mi West 13.8 mph - N/A   Clear
2:53 PM 84.9 °F 83.7 °F 55.9 °F 37% 29.93 in 10.0 mi NW 13.8 mph - N/A   Clear
3:53 PM 80.1 °F 80.2 °F 55.9 °F 43% 29.93 in 10.0 mi WNW 16.1 mph - N/A   Clear
4:53 PM 75.0 °F - 57.0 °F 53% 29.94 in 10.0 mi WNW 13.8 mph - N/A   Clear
5:53 PM 70.0 °F - 57.0 °F 63% 29.94 in 9.0 mi NW 13.8 mph - N/A   Clear
6:53 PM 68.0 °F - 57.0 °F 68% 29.95 in 9.0 mi WNW 9.2 mph - N/A   Clear
7:53 PM 66.9 °F - 55.9 °F 68% 29.95 in 10.0 mi WNW 6.9 mph - N/A   Clear
8:53 PM 66.0 °F - 55.9 °F 70% 29.96 in 10.0 mi WNW 6.9 mph - N/A   Clear
9:53 PM 64.0 °F - 55.9 °F 75% 29.96 in 10.0 mi West 4.6 mph - N/A   Clear
10:53 PM 62.1 °F - 55.9 °F 80% 29.96 in 10.0 mi West 4.6 mph - N/A   Clear